{"data":{"norad_id":87991,"epoch":"2026-05-23T14:16:05.755584Z","epoch_age_seconds":196589,"freshness":"STALE","line1":"1 87991U          26143.59451106 -.00004195  00000+0 -88999-2 0  9996","line2":"2 87991  28.6215 299.8712 0877016  62.1939 306.4699 12.35256043543029","mean_motion":12.35256043,"eccentricity":0.0877016,"inclination_deg":28.6215,"raan_deg":299.8712,"arg_perigee_deg":62.1939,"mean_anomaly_deg":306.4699,"bstar":-0.0088999,"rev_number":54302,"period_min":116.57502168561,"perigee_km":833.50395448333,"apogee_km":2220.0512735046,"semimajor_km":7904.914613994,"source":"CELESTRAK","updated_at":"2026-05-25T13:38:11.775696Z"}}